Location: Bailleul
(50.3375°N, 2.8513°E)
Time: 05:51:15
(UTC+00:00)

Cosmos 1766 Rocket - Pass Details

Date: 19 April 2021
Orbit: 604 x 633 km, 82.5° (Epoch: 09 May)

Event Time Altitude Azimuth Distance (km) Brightness Sun altitude
Rises 21:13:20 0° 349° (N) 2,874 8.0 -19.6°
Reaches altitude 10° 21:15:34 10° 350° (N) 1,965 7.0 -19.8°
Maximum altitude 21:19:55 89° 82° (E) 614 3.4 -20.3°
Enters shadow 21:20:58 52° 169° (S) 763 3.6 -20.4°
